TimeCDT,TemperatureF,Dew PointF,Humidity,Sea Level PressureIn,VisibilityMPH,Wind Direction,Wind SpeedMPH,Gust SpeedMPH,PrecipitationIn,Events,Conditions,WindDirDegrees,DateUTC
12:32 AM,59.0,51.8,77,30.11,10.0,NNW,5.8,-,N/A,,Mostly Cloudy,340,2012-10-05 05:32:00
12:55 AM,58.8,53.1,81,30.10,10.0,NNW,6.9,-,N/A,,Overcast,330,2012-10-05 05:55:00
1:22 AM,59.0,53.6,82,30.10,10.0,NNW,4.6,-,N/A,,Scattered Clouds,340,2012-10-05 06:22:00
1:55 AM,57.0,52.9,86,30.09,10.0,NNW,5.8,-,N/A,,Clear,340,2012-10-05 06:55:00
2:55 AM,56.3,53.2,89,30.10,10.0,NNW,4.6,-,N/A,,Clear,330,2012-10-05 07:55:00
3:42 AM,57.2,53.6,88,30.09,10.0,Calm,Calm,-,N/A,,Mostly Cloudy,0,2012-10-05 08:42:00
3:52 AM,57.2,53.6,88,30.09,10.0,NW,3.5,-,N/A,,Scattered Clouds,320,2012-10-05 08:52:00
3:54 AM,57.2,53.6,88,30.09,10.0,Calm,Calm,-,N/A,,Mostly Cloudy,0,2012-10-05 08:54:00
3:55 AM,57.0,54.0,89,30.09,10.0,Calm,Calm,-,N/A,,Mostly Cloudy,0,2012-10-05 08:55:00
4:00 AM,57.2,53.6,88,30.09,10.0,Calm,Calm,-,N/A,,Mostly Cloudy,0,2012-10-05 09:00:00
4:05 AM,57.2,53.6,88,30.09,10.0,Calm,Calm,-,N/A,,Mostly Cloudy,0,2012-10-05 09:05:00
4:55 AM,58.5,54.0,85,30.09,10.0,NNW,4.6,-,N/A,,Overcast,330,2012-10-05 09:55:00
5:51 AM,57.2,53.6,88,30.09,10.0,NNW,4.6,-,N/A,,Scattered Clouds,340,2012-10-05 10:51:00
5:55 AM,57.4,53.4,87,30.09,10.0,NNW,4.6,-,N/A,,Scattered Clouds,340,2012-10-05 10:55:00
6:13 AM,57.2,53.6,88,30.10,10.0,North,4.6,-,N/A,,Mostly Cloudy,350,2012-10-05 11:13:00
6:55 AM,58.5,53.4,83,30.10,10.0,North,5.8,-,N/A,,Overcast,360,2012-10-05 11:55:00
7:32 AM,59.0,51.8,77,30.09,10.0,North,6.9,-,N/A,,Overcast,360,2012-10-05 12:32:00
7:39 AM,59.0,51.8,77,30.09,10.0,Variable,6.9,-,N/A,,Overcast,0,2012-10-05 12:39:00
7:55 AM,59.0,50.7,74,30.10,10.0,North,5.8,-,N/A,,Overcast,350,2012-10-05 12:55:00
8:08 AM,59.0,50.0,72,30.10,10.0,North,6.9,-,N/A,,Overcast,350,2012-10-05 13:08:00
8:55 AM,59.4,49.8,71,30.10,10.0,NNE,4.6,-,N/A,,Overcast,20,2012-10-05 13:55:00
9:55 AM,60.8,49.5,66,30.11,10.0,NE,4.6,-,N/A,,Overcast,50,2012-10-05 14:55:00
10:55 AM,62.1,50.2,65,30.12,10.0,NNE,5.8,-,N/A,,Overcast,30,2012-10-05 15:55:00
11:55 AM,64.2,51.6,64,30.11,10.0,Variable,3.5,-,N/A,,Mostly Cloudy,0,2012-10-05 16:55:00
12:10 PM,64.4,51.8,64,30.11,8.0,Calm,Calm,-,N/A,,Overcast,0,2012-10-05 17:10:00
12:40 PM,64.4,51.8,64,30.10,10.0,Calm,Calm,-,N/A,,Overcast,0,2012-10-05 17:40:00
12:55 PM,65.5,52.5,63,30.09,10.0,Calm,Calm,-,N/A,,Overcast,0,2012-10-05 17:55:00
1:55 PM,67.1,54.0,63,30.06,10.0,Calm,Calm,-,N/A,,Overcast,0,2012-10-05 18:55:00
2:48 PM,69.8,55.4,60,30.04,7.0,Variable,4.6,-,N/A,,Scattered Clouds,0,2012-10-05 19:48:00
2:55 PM,69.3,55.8,62,30.03,7.0,NE,3.5,-,N/A,,Scattered Clouds,50,2012-10-05 19:55:00
3:08 PM,71.6,57.2,60,30.03,2.5,Variable,4.6,-,N/A,,Haze,0,2012-10-05 20:08:00
3:15 PM,71.6,57.2,60,30.02,3.0,Calm,Calm,-,N/A,,Haze,0,2012-10-05 20:15:00
3:55 PM,71.4,56.3,59,30.01,10.0,East,5.8,-,N/A,,Clear,90,2012-10-05 20:55:00
4:55 PM,72.7,56.5,57,29.99,10.0,NE,9.2,-,N/A,,Clear,50,2012-10-05 21:55:00
5:55 PM,71.6,56.5,59,29.99,10.0,NNE,10.4,-,N/A,,Clear,30,2012-10-05 22:55:00
6:55 PM,68.4,54.9,62,30.01,10.0,NNE,11.5,-,N/A,,Clear,30,2012-10-05 23:55:00
7:55 PM,64.9,54.3,68,30.02,10.0,NE,12.7,-,N/A,,Clear,40,2012-10-06 00:55:00
8:55 PM,62.1,53.6,74,30.04,10.0,NE,16.1,-,N/A,,Clear,40,2012-10-06 01:55:00
9:55 PM,58.3,51.4,78,30.08,10.0,NE,16.1,-,N/A,,Clear,40,2012-10-06 02:55:00
10:55 PM,56.8,51.1,81,30.09,10.0,NE,11.5,-,N/A,,Partly Cloudy,50,2012-10-06 03:55:00
11:55 PM,55.4,49.8,81,30.09,10.0,NE,10.4,-,N/A,,Scattered Clouds,50,2012-10-06 04:55:00